Regional Weather Roundup
Issued by NWS Newport/Morehead, NC

Current Version | Previous Version | Text Only | Print | Product List | Glossary On
Versions: 1 2 3 4 5 6 7 8 9 10 11 12 13 14 15 16 17 18 19 20 21 22 23 24 25 26 27 28 29 30 31 32 33 34 35 36 37 38 39 40 41 42 43 44 45 46 47 48 49 50
000
ASUS42 KMHX 290410
RWRMHX
WEATHER ROUNDUP FOR EASTERN NORTH CAROLINA
NATIONAL WEATHER SERVICE NEWPORT/MOREHEAD CITY NC
1200 AM EDT TUE JUL 29 2014

NOTE: "FAIR" INDICATES FEW OR NO CLOUDS BELOW 12,000 FEET
WITH NO SIGNIFICANT WEATHER AND/OR OBSTRUCTIONS TO VISIBILITY

NCZ015>017-031-032-045>047-102-103-290500-
NORTH COAST

CITY           SKY/WX    TMP DP  RH WIND       PRES   REMARKS
EDENTON        CLEAR     74  64  70 NW6       29.82S
ELIZABETH CITY CLEAR     69  62  78 W7        29.82R
KITTY HAWK     CLEAR     79  61  54 NW6       29.81R
MANTEO         NOT AVBL

$$

NCZ045>047-081-094-103-104-290500-
CENTRAL COAST

CITY           SKY/WX    TMP DP  RH WIND       PRES   REMARKS
FRISCO         MOCLDY    81  68  64 NW7       29.82R
SWANQUARTER      N/A     75 N/A N/A NW1       29.79S

$$

NCZ095-097-098-100-101-290500-
SOUTHERN COAST

CITY           SKY/WX    TMP DP  RH WIND       PRES   REMARKS
BEAUFORT       MOCLDY    77  74  90 NW6       29.83R
CEDAR ISLAND     N/A     77 N/A N/A SW5       29.88R
JACKSONVILLE   CLEAR     75  73  93 NW5       29.82S
NEWPORT        NOT AVBL
PINEY ISLAND   PTCLDY    78  76  93 W6        29.83R
WILMINGTON     CLEAR     74  71  91 NW6       29.83R


$$

NCZ011>013-027>030-043-044-078>080-089-090>093-098-290500-
COASTAL PLAIN

CITY           SKY/WX    TMP DP  RH WIND       PRES   REMARKS
AHOSKIE        CLEAR     70  61  73 CALM      29.84R
CLINTON        PTCLDY    76  68  75 CALM      29.85S
ELIZABETHTOWN  PTCLDY    74  73  94 CALM      29.85S
GOLDSBORO      CLEAR     76  67  74 NW5       29.83S
GREENVILLE     CLEAR     73  64  73 NW3       29.86F
HAVELOCK       PTCLDY    73  71  93 CALM      29.84R
KENANSVILLE    PTCLDY    70  67  90 CALM      29.85S
KINSTON        CLEAR     74  65  71 NW3       29.85R
NEW BERN       FOG       73  72  94 CALM      29.84R VSB 1
RICHLANDS      MOCLDY    73  70  88 CALM      29.83F
ROANOKE RAPIDS NOT AVBL
ROCKY MOUNT    CLEAR     73  61  65 NW3       29.86R
WASHINGTON     CLEAR     74  62  66 NW6       29.83S
WHITEVILLE     MOCLDY    73  72  95 CALM      29.84F

$$

AMZ130-135-150-152-154-156-158-170-250-252-270-ANZ085-086-088-633-658-670-290500-
MARINE OBSERVATIONS

STATION/POSITION TIME  TEMP    WIND        PRES    WAVE   SWELL
                       AIR SEA DIR/SP/G            HT/PER HT/PER
                 (UTC) (F)     (DEG/KT/KT) (MB)    (FT/S) (FT/S)
CHESAPEAKE LIGHT NOT AVBL
BUOY 44014       0400   80 78  280/ 12/ 14 1008.4    4/ 7   3/ 7
DUCK             0400   78 61  310/ 14/ 17 1008.7
2E DUCK          0300                        N/A     1/ 9
OREGON INLET     0400   80 84  320/  9/ 12 1009.6
BUOY 44095       0400      79                N/A     3/ 6
20E OREGON INLET NOT AVBL
HATTERAS CG      0400   81 82  310/  8/  9 1010.2
DIAMOND BUOY     0400          VRB  6/  8  1009.9    4/ 8   3/ 8
CAPE LOOKOUT     0300   79     270/ 12/ 13 1009.4
BEAUFORT LAB     0400   77 82  320/  3/  4 1009.7
30 SE NEW RIVER  0400   80 81  270/ 12/ 14 1009.9    4/ 6   3/ 6
5 SE WRIGHTSVILL 0300   76 82  290/  6/  8   N/A
BUOY 41002       0252   82 81  230/ 19/ 21 1013.1    6/ 7
BUOY 41004       0400   84 84  220/ 19/ 23 1008.6    5/ 6   2/ 9

$$


USA.gov is the U.S. government's official web portal to all federal, state and local government web resources and services.